Location: Alsip
(41.6689°N, 87.7387°W)
Time: 14:36:10
(UTC+00:00)

Cosmos 1340 - Pass Details

Date: 14 July 2020
Orbit: 502 x 505 km, 81.2° (Epoch: 12 August)

Event Time Altitude Azimuth Distance (km) Brightness Sun altitude
Exits shadow 04:56:54 35° 291° (WNW) 824 3.9 -25.2°
Drops below altitude 10° 05:00:13 10° 352° (N) 1,721 6.4 -25.4°
Sets 05:02:29 0° 2° (N) 2,611 7.5 -25.5°
